Location: Schommer Observatory
(40.5200°N, 74.4500°W)
Time: 01:33:10
(UTC-04:00)

Envisat - Pass Details

Date: 12 October 2017
Orbit: 764 x 766 km, 98.2° (Epoch: 18 October)

Event Time Altitude Azimuth Distance (km) Brightness Sun altitude
Exits shadow 21:33:58 28° 296° (WNW) 1,406 4.8 -36.6°
Drops below altitude 10° 21:37:04 10° 328° (NNW) 2,309 6.0 -37.2°
Sets 21:39:36 0° 338° (NNW) 3,239 6.8 -37.6°
